Regional Weather Roundup
Issued by NWS Spokane, WA

Home | Current Version | Previous Version | Text Only | Print | Product List | Glossary On
Versions: 1 2 3 4 5 6 7 8 9 10 11 12 13 14 15 16 17 18 19 20 21 22 23 24 25 26 27 28 29 30 31 32 33 34 35 36 37 38 39 40 41 42 43 44 45 46 47 48 49 50
000
NZUS01 KOTX 011210
RWROTX
EASTERN WASHINGTON/NORTHERN IDAHO ROUNDUP
NATIONAL WEATHER SERVICE, SPOKANE WA
500 AM PDT WED OCT 01 2014

Note: "fair" indicated few or no clouds below 12,000 feet with no
significant weather and/or obstructions to visibility.

...NORTHEAST WASHINGTON AND NORTHERN IDAHO PANHANDLE...

CITY           SKY/WX    TMP DP  RH WIND       PRES   REMARKS
SPOKANE INTL   CLEAR     39  33  79 S8        30.06R
SPOKANE DOWNTO CLEAR     40  38  93 CALM      30.08R
COEUR D ALENE  CLEAR     43  39  87 S8        30.06R
DEER PARK      CLEAR     32  31  96 CALM      30.06R
SANDPOINT      FOG       37  37 100 CALM      30.06R VSB 1/4

...SOUTHEAST WASHINGTON AND SOUTHERN IDAHO PANHANDLE...

CITY           SKY/WX    TMP DP  RH WIND       PRES   REMARKS
WALLA WALLA    PTCLDY    51  43  74 S10       30.14R
PULLMAN/MOSCOW CLEAR     44  38  79 W7        30.11R
LEWISTON       CLEAR     47  41  80 W3        30.10R
LOWELL           N/A     48  46  93 CALM      30.13R

...COLUMBIA BASIN...

CITY           SKY/WX    TMP DP  RH WIND       PRES   REMARKS
EPHRATA        CLEAR     48  35  60 SE5       30.08R
MOSES LAKE     CLEAR     49  40  71 W3        30.09R
TRI CITIES     CLEAR     40  39  97 CALM      30.13R
HERMISTON      CLEAR     50  41  71 W6        30.14R
PENDLETON      PTCLDY    49  40  71 CALM      30.13R

...EAST SLOPES CASCADES...

CITY           SKY/WX    TMP DP  RH WIND       PRES   REMARKS
THE DALLES     CLEAR     50  43  77 CALM      30.16R
YAKIMA         CLEAR     39  35  86 W3        30.13R
ELLENSBURG     CLEAR     49  39  68 NW10      30.11S
WENATCHEE      CLEAR     51  36  56 N7        30.10S
OMAK           CLEAR     35  32  88 W3        30.09R

...SOUTHERN BRITISH COLUMBIA...

CITY           SKY/WX    TMP DP  RH WIND       PRES   REMARKS
PENTICTON      PTCLDY    39  37  93 CALM      30.09S
CRANBROOK      CLEAR     36  32  87 SW3       29.99S

...WESTERN MONTANA...

CITY           SKY/WX    TMP DP  RH WIND       PRES   REMARKS
MISSOULA       CLOUDY    44  40  85 NW5       30.05R

...NEIGHBORING CITIES...

CITY           SKY/WX    TMP DP  RH WIND       PRES   REMARKS
SEATTLE        MOCLDY    52  49  89 SE5       30.20S
CALGARY        CLEAR     36  32  87 CALM      29.88S



USA.gov is the U.S. government's official web portal to all federal, state and local government web resources and services.